STARLINK-36746

Last updated on Sat Mar 14 2026 00:02:06 GMT+0000 (Coordinated Universal Time)

1 67733U 26026N 26072.59591749 .00097070 00000+0 17623-2 0 9991 2 67733 97.2849 126.9764 0001273 79.9822 280.1573 15.49225082 4718
UTC large
Height (km)
Speed (km/s)
/
Latitude / Longitude
Inclination (degrees)
Orbital Period (minutes)
Azimuth
Elevation
Range (km)
Doppler Factor

Next 0 passes for location: London (51.5072 / 0.1276)

Sorry there are no passes over London.